Time,TemperatureF,DewpointF,PressureIn,WindDirection,WindDirectionDegrees,WindSpeedMPH,WindSpeedGustMPH,Humidity,HourlyPrecipIn,Conditions,Clouds,dailyrainin,SoftwareType,DateUTC
2013-04-12 00:03:00,76.0,70.0,29.85,SE,146,1.0,7.0,83,0.00,,,0.00,,2013-04-12 04:03:00,
2013-04-12 00:13:00,76.0,70.0,29.85,SE,146,1.0,7.0,83,0.00,,,0.00,,2013-04-12 04:13:00,
2013-04-12 00:23:00,76.0,70.0,29.85,East,80,0.0,5.0,83,0.00,,,0.00,,2013-04-12 04:23:00,
2013-04-12 00:33:00,76.0,71.0,29.86,SSE,155,2.0,8.0,84,0.00,,,0.00,,2013-04-12 04:33:00,
2013-04-12 00:43:00,76.0,71.0,29.86,SSE,155,2.0,8.0,84,0.00,,,0.00,,2013-04-12 04:43:00,
2013-04-12 00:53:00,76.0,71.0,29.86,ENE,74,2.0,7.0,85,0.00,,,0.00,,2013-04-12 04:53:00,
2013-04-12 01:03:00,76.0,72.0,29.86,East,87,0.0,6.0,86,0.00,,,0.00,,2013-04-12 05:03:00,
2013-04-12 01:12:00,76.0,72.0,29.86,East,87,0.0,6.0,86,0.00,,,0.00,,2013-04-12 05:12:00,
2013-04-12 01:23:00,76.0,72.0,29.86,SE,138,3.0,7.0,87,0.00,,,0.00,,2013-04-12 05:23:00,
2013-04-12 01:32:00,76.0,72.0,29.87,SE,140,2.0,8.0,87,0.00,,,0.00,,2013-04-12 05:32:00,
2013-04-12 01:42:00,76.0,72.0,29.87,SE,140,2.0,8.0,87,0.00,,,0.00,,2013-04-12 05:42:00,
2013-04-12 01:52:00,76.0,72.0,29.87,SE,135,1.0,6.0,87,0.00,,,0.00,,2013-04-12 05:52:00,
2013-04-12 02:02:00,76.0,72.0,29.87,ESE,112,2.0,7.0,87,0.00,,,0.00,,2013-04-12 06:02:00,
2013-04-12 02:12:00,76.0,72.0,29.87,ESE,112,2.0,7.0,87,0.00,,,0.00,,2013-04-12 06:12:00,
2013-04-12 02:22:00,76.0,72.0,29.87,SSE,156,2.0,6.0,86,0.00,,,0.00,,2013-04-12 06:22:00,
2013-04-12 02:32:00,76.0,71.0,29.87,SE,141,2.0,7.0,85,0.00,,,0.00,,2013-04-12 06:32:00,
2013-04-12 02:42:00,76.0,71.0,29.87,SE,141,2.0,7.0,85,0.00,,,0.00,,2013-04-12 06:42:00,
2013-04-12 02:52:00,76.0,71.0,29.86,East,94,0.0,7.0,85,0.00,,,0.00,,2013-04-12 06:52:00,
2013-04-12 03:02:00,76.0,71.0,29.86,SE,141,1.0,6.0,85,0.00,,,0.00,,2013-04-12 07:02:00,
2013-04-12 03:12:00,76.0,71.0,29.86,SE,141,1.0,6.0,85,0.00,,,0.00,,2013-04-12 07:12:00,
2013-04-12 03:22:00,76.0,71.0,29.86,East,84,1.0,8.0,84,0.00,,,0.00,,2013-04-12 07:22:00,
2013-04-12 03:32:00,76.0,71.0,29.86,SE,142,2.0,7.0,84,0.00,,,0.00,,2013-04-12 07:32:00,
2013-04-12 03:42:00,76.0,71.0,29.86,SE,142,2.0,7.0,84,0.00,,,0.00,,2013-04-12 07:42:00,
2013-04-12 03:52:00,76.0,71.0,29.86,SE,124,0.0,5.0,85,0.00,,,0.00,,2013-04-12 07:52:00,
2013-04-12 04:03:00,76.0,72.0,29.86,East,80,1.0,5.0,86,0.00,,,0.00,,2013-04-12 08:03:00,
2013-04-12 04:12:00,76.0,72.0,29.86,East,80,1.0,5.0,86,0.00,,,0.00,,2013-04-12 08:12:00,
2013-04-12 04:22:00,76.0,72.0,29.86,ESE,115,1.0,8.0,87,0.00,,,0.00,,2013-04-12 08:22:00,
2013-04-12 04:32:00,76.0,72.0,29.86,East,98,2.0,6.0,87,0.00,,,0.00,,2013-04-12 08:32:00,
2013-04-12 04:42:00,76.0,72.0,29.86,East,98,2.0,6.0,87,0.00,,,0.00,,2013-04-12 08:42:00,
2013-04-12 04:53:00,76.0,72.0,29.87,SW,222,1.0,4.0,87,0.00,,,0.00,,2013-04-12 08:53:00,
2013-04-12 05:02:00,76.0,72.0,29.86,East,101,2.0,7.0,87,0.00,,,0.00,,2013-04-12 09:02:00,
2013-04-12 05:12:00,76.0,72.0,29.86,East,101,2.0,7.0,87,0.00,,,0.00,,2013-04-12 09:12:00,
2013-04-12 05:22:00,76.0,72.0,29.86,East,97,2.0,7.0,88,0.00,,,0.00,,2013-04-12 09:22:00,
2013-04-12 05:33:00,76.0,72.0,29.85,ESE,103,1.0,5.0,88,0.00,,,0.00,,2013-04-12 09:33:00,
2013-04-12 05:43:00,76.0,72.0,29.85,ESE,103,1.0,5.0,88,0.00,,,0.00,,2013-04-12 09:43:00,
2013-04-12 05:53:00,76.0,72.0,29.85,East,98,2.0,5.0,88,0.00,,,0.00,,2013-04-12 09:53:00,
2013-04-12 06:03:00,76.0,72.0,29.85,East,98,2.0,5.0,88,0.00,,,0.00,,2013-04-12 10:03:00,
2013-04-12 06:13:00,76.0,72.0,29.85,East,98,2.0,5.0,88,0.00,,,0.00,,2013-04-12 10:13:00,
2013-04-12 06:23:00,75.0,72.0,29.84,SE,124,2.0,7.0,89,0.00,,,0.00,,2013-04-12 10:23:00,
2013-04-12 06:34:00,75.0,72.0,29.84,SE,131,3.0,7.0,89,0.00,,,0.00,,2013-04-12 10:34:00,
2013-04-12 06:43:00,75.0,72.0,29.84,SE,131,3.0,7.0,89,0.00,,,0.00,,2013-04-12 10:43:00,
2013-04-12 06:53:00,75.0,72.0,29.85,SE,127,1.0,6.0,90,0.00,,,0.00,,2013-04-12 10:53:00,
2013-04-12 07:03:00,75.0,72.0,29.85,ESE,105,2.0,5.0,91,0.00,,,0.00,,2013-04-12 11:03:00,
2013-04-12 07:13:00,75.0,72.0,29.85,ESE,105,2.0,5.0,91,0.00,,,0.00,,2013-04-12 11:13:00,
2013-04-12 07:22:00,74.0,71.0,29.86,SE,135,1.0,5.0,91,0.00,,,0.00,,2013-04-12 11:22:00,
2013-04-12 07:32:00,74.0,71.0,29.87,ESE,119,1.0,5.0,91,0.00,,,0.00,,2013-04-12 11:32:00,
2013-04-12 07:43:00,74.0,71.0,29.87,ESE,119,1.0,5.0,91,0.00,,,0.00,,2013-04-12 11:43:00,
2013-04-12 07:52:00,74.0,71.0,29.87,SSE,152,1.0,5.0,91,0.00,,,0.00,,2013-04-12 11:52:00,
2013-04-12 08:13:00,75.0,72.0,29.88,SW,216,0.0,5.0,91,0.00,,,0.00,,2013-04-12 12:13:00,
2013-04-12 08:22:00,75.0,72.0,29.88,West,271,1.0,5.0,91,0.00,,,0.00,,2013-04-12 12:22:00,
2013-04-12 08:33:00,75.0,72.0,29.88,SE,131,1.0,4.0,91,0.00,,,0.00,,2013-04-12 12:33:00,
2013-04-12 08:42:00,75.0,72.0,29.88,SE,131,1.0,4.0,91,0.00,,,0.00,,2013-04-12 12:42:00,
2013-04-12 08:53:00,75.0,72.0,29.88,SSE,164,2.0,9.0,91,0.00,,,0.00,,2013-04-12 12:53:00,
2013-04-12 09:03:00,75.0,72.0,29.88,South,181,0.0,6.0,91,0.00,,,0.00,,2013-04-12 13:03:00,
2013-04-12 09:12:00,75.0,72.0,29.88,South,181,0.0,6.0,91,0.00,,,0.00,,2013-04-12 13:12:00,
2013-04-12 09:22:00,75.0,72.0,29.87,SE,146,1.0,7.0,91,0.00,,,0.00,,2013-04-12 13:22:00,
2013-04-12 09:32:00,76.0,73.0,29.88,ESE,111,1.0,7.0,91,0.00,,,0.00,,2013-04-12 13:32:00,
2013-04-12 09:42:00,76.0,73.0,29.88,ESE,111,1.0,7.0,91,0.00,,,0.00,,2013-04-12 13:42:00,
2013-04-12 09:53:00,76.0,73.0,29.88,SSW,200,2.0,7.0,90,0.00,,,0.00,,2013-04-12 13:53:00,
2013-04-12 10:03:00,76.0,73.0,29.88,SW,225,2.0,9.0,90,0.00,,,0.00,,2013-04-12 14:03:00,
2013-04-12 10:13:00,76.0,73.0,29.88,SW,225,2.0,9.0,90,0.00,,,0.00,,2013-04-12 14:13:00,
2013-04-12 10:23:00,76.0,73.0,29.88,SE,136,2.0,9.0,90,0.00,,,0.00,,2013-04-12 14:23:00,
2013-04-12 10:33:00,76.0,73.0,29.88,SSE,150,2.0,7.0,90,0.00,,,0.00,,2013-04-12 14:33:00,
2013-04-12 10:42:00,76.0,73.0,29.88,SSE,150,2.0,7.0,90,0.00,,,0.00,,2013-04-12 14:42:00,
2013-04-12 10:54:00,76.0,73.0,29.89,SW,223,1.0,9.0,90,0.00,,,0.00,,2013-04-12 14:54:00,
2013-04-12 11:03:00,76.0,73.0,29.90,WSW,242,1.0,10.0,90,0.00,,,0.00,,2013-04-12 15:03:00,
2013-04-12 11:12:00,76.0,73.0,29.90,WSW,242,1.0,10.0,90,0.00,,,0.00,,2013-04-12 15:12:00,
2013-04-12 11:22:00,76.0,73.0,29.91,SW,234,1.0,6.0,90,0.00,,,0.00,,2013-04-12 15:22:00,
2013-04-12 11:33:00,76.0,73.0,29.92,South,179,3.0,8.0,90,0.00,,,0.00,,2013-04-12 15:33:00,
2013-04-12 11:43:00,76.0,73.0,29.92,South,179,3.0,8.0,90,0.00,,,0.00,,2013-04-12 15:43:00,
2013-04-12 11:53:00,76.0,73.0,29.90,ESE,117,3.0,7.0,90,0.00,,,0.00,,2013-04-12 15:53:00,
2013-04-12 12:04:00,77.0,74.0,29.90,South,181,3.0,9.0,89,0.00,,,0.00,,2013-04-12 16:04:00,
2013-04-12 12:13:00,77.0,74.0,29.90,South,181,3.0,9.0,89,0.00,,,0.00,,2013-04-12 16:13:00,
2013-04-12 12:23:00,78.0,74.0,29.88,WNW,300,2.0,13.0,87,0.00,,,0.00,,2013-04-12 16:23:00,
2013-04-12 12:33:00,78.0,73.0,29.89,WSW,238,3.0,12.0,86,0.00,,,0.00,,2013-04-12 16:33:00,
2013-04-12 12:43:00,78.0,73.0,29.89,WSW,238,3.0,12.0,86,0.00,,,0.00,,2013-04-12 16:43:00,
2013-04-12 12:53:00,78.0,74.0,29.89,SW,215,3.0,7.0,87,0.00,,,0.00,,2013-04-12 16:53:00,
2013-04-12 13:03:00,78.0,73.0,29.89,WSW,239,3.0,12.0,86,0.00,,,0.00,,2013-04-12 17:03:00,
2013-04-12 13:12:00,78.0,73.0,29.89,WSW,239,3.0,12.0,86,0.00,,,0.00,,2013-04-12 17:12:00,
2013-04-12 13:23:00,78.0,73.0,29.87,West,278,6.0,14.0,86,0.00,,,0.00,,2013-04-12 17:23:00,
2013-04-12 13:33:00,78.0,74.0,29.87,WSW,241,4.0,17.0,87,0.00,,,0.00,,2013-04-12 17:33:00,
2013-04-12 13:46:00,78.0,74.0,29.87,WSW,241,4.0,17.0,87,0.00,,,0.00,,2013-04-12 17:46:00,
2013-04-12 14:07:00,77.0,73.0,29.88,SW,232,6.0,16.0,87,0.00,,,0.00,,2013-04-12 18:07:00,
2013-04-12 14:23:00,77.0,73.0,29.89,SW,228,5.0,14.0,88,0.00,,,0.00,,2013-04-12 18:23:00,
2013-04-12 15:33:00,75.0,73.0,29.83,WSW,242,5.0,15.0,92,0.00,,,0.00,,2013-04-12 19:33:00,
2013-04-12 15:43:00,75.0,73.0,29.83,WSW,242,5.0,15.0,92,0.00,,,0.00,,2013-04-12 19:43:00,
2013-04-12 15:53:00,75.0,73.0,29.81,SSW,205,4.0,13.0,93,0.00,,,0.00,,2013-04-12 19:53:00,
2013-04-12 16:02:00,75.0,73.0,29.81,SSW,205,4.0,13.0,93,0.00,,,0.00,,2013-04-12 20:02:00,
2013-04-12 16:13:00,75.0,73.0,29.81,SSW,205,4.0,13.0,93,0.00,,,0.00,,2013-04-12 20:13:00,
2013-04-12 16:22:00,75.0,73.0,29.80,SW,229,5.0,21.0,94,0.01,,,0.01,,2013-04-12 20:22:00,
2013-04-12 16:32:00,74.0,72.0,29.80,SSW,199,3.0,13.0,94,0.01,,,0.01,,2013-04-12 20:32:00,
2013-04-12 16:43:00,74.0,72.0,29.80,SSW,199,3.0,13.0,94,0.01,,,0.01,,2013-04-12 20:43:00,
2013-04-12 16:52:00,75.0,73.0,29.79,West,279,2.0,15.0,93,0.01,,,0.01,,2013-04-12 20:52:00,
2013-04-12 17:03:00,75.0,73.0,29.75,WNW,286,4.0,13.0,93,0.02,,,0.02,,2013-04-12 21:03:00,
2013-04-12 17:12:00,75.0,73.0,29.75,WNW,286,4.0,13.0,93,0.02,,,0.02,,2013-04-12 21:12:00,
2013-04-12 17:22:00,75.0,73.0,29.78,SSW,211,4.0,14.0,92,0.01,,,0.02,,2013-04-12 21:22:00,
2013-04-12 17:33:00,76.0,73.0,29.79,South,182,7.0,16.0,91,0.01,,,0.02,,2013-04-12 21:33:00,
2013-04-12 17:43:00,76.0,73.0,29.79,South,182,7.0,16.0,91,0.01,,,0.02,,2013-04-12 21:43:00,
2013-04-12 17:52:00,76.0,73.0,29.78,SW,232,3.0,17.0,90,0.01,,,0.02,,2013-04-12 21:52:00,
2013-04-12 18:02:00,76.0,73.0,29.79,SW,217,5.0,14.0,89,0.00,,,0.02,,2013-04-12 22:02:00,
2013-04-12 18:13:00,76.0,73.0,29.79,SW,217,5.0,14.0,89,0.00,,,0.02,,2013-04-12 22:13:00,
2013-04-12 18:22:00,76.0,72.0,29.78,East,86,4.0,12.0,87,0.00,,,0.02,,2013-04-12 22:22:00,
2013-04-12 18:33:00,76.0,72.0,29.78,SW,225,4.0,13.0,87,0.00,,,0.02,,2013-04-12 22:33:00,
2013-04-12 18:43:00,76.0,72.0,29.78,SW,225,4.0,13.0,87,0.00,,,0.02,,2013-04-12 22:43:00,
2013-04-12 18:52:00,76.0,72.0,29.81,SW,223,6.0,16.0,88,0.00,,,0.02,,2013-04-12 22:52:00,
2013-04-12 19:04:00,76.0,72.0,29.80,SW,235,3.0,11.0,88,0.00,,,0.02,,2013-04-12 23:04:00,
2013-04-12 19:12:00,76.0,72.0,29.80,SW,235,3.0,11.0,88,0.00,,,0.02,,2013-04-12 23:12:00,
2013-04-12 19:22:00,76.0,72.0,29.82,WSW,240,9.0,15.0,88,0.00,,,0.02,,2013-04-12 23:22:00,
2013-04-12 19:32:00,76.0,73.0,29.83,WNW,296,5.0,9.0,89,0.00,,,0.02,,2013-04-12 23:32:00,
2013-04-12 19:42:00,76.0,73.0,29.83,WNW,296,5.0,9.0,89,0.00,,,0.02,,2013-04-12 23:42:00,
2013-04-12 19:52:00,75.0,72.0,29.83,West,259,4.0,10.0,89,0.00,,,0.02,,2013-04-12 23:52:00,
2013-04-12 20:02:00,75.0,72.0,29.84,SW,215,3.0,11.0,89,0.00,,,0.02,,2013-04-13 00:02:00,
2013-04-12 20:12:00,75.0,72.0,29.84,SW,215,3.0,11.0,89,0.00,,,0.02,,2013-04-13 00:12:00,
2013-04-12 20:22:00,74.0,70.0,29.85,SW,236,4.0,11.0,87,0.00,,,0.02,,2013-04-13 00:22:00,
2013-04-12 20:32:00,73.0,69.0,29.86,WNW,292,4.0,9.0,87,0.00,,,0.02,,2013-04-13 00:32:00,
2013-04-12 20:42:00,73.0,69.0,29.86,WNW,292,4.0,9.0,87,0.00,,,0.02,,2013-04-13 00:42:00,
2013-04-12 20:52:00,73.0,69.0,29.87,WNW,288,3.0,6.0,87,0.00,,,0.02,,2013-04-13 00:52:00,
2013-04-12 21:02:00,73.0,69.0,29.87,WNW,285,2.0,8.0,88,0.00,,,0.02,,2013-04-13 01:02:00,
2013-04-12 21:13:00,73.0,69.0,29.87,WNW,285,2.0,8.0,88,0.00,,,0.02,,2013-04-13 01:13:00,
2013-04-12 21:22:00,72.0,69.0,29.87,NNW,329,0.0,7.0,89,0.00,,,0.02,,2013-04-13 01:22:00,
2013-04-12 21:33:00,72.0,69.0,29.87,West,278,1.0,5.0,89,0.00,,,0.02,,2013-04-13 01:33:00,
2013-04-12 21:43:00,72.0,69.0,29.87,West,278,1.0,5.0,89,0.00,,,0.02,,2013-04-13 01:43:00,
2013-04-12 21:52:00,72.0,69.0,29.86,ENE,61,0.0,2.0,90,0.00,,,0.02,,2013-04-13 01:52:00,
2013-04-12 22:02:00,71.0,68.0,29.87,ESE,108,0.0,3.0,90,0.00,,,0.02,,2013-04-13 02:02:00,
2013-04-12 22:12:00,71.0,68.0,29.87,ESE,108,0.0,3.0,90,0.00,,,0.02,,2013-04-13 02:12:00,
2013-04-12 22:23:00,71.0,68.0,29.89,WNW,296,1.0,3.0,91,0.00,,,0.02,,2013-04-13 02:23:00,
2013-04-12 22:33:00,71.0,68.0,29.90,West,279,2.0,4.0,91,0.00,,,0.02,,2013-04-13 02:33:00,
2013-04-12 22:42:00,71.0,68.0,29.90,West,279,2.0,4.0,91,0.00,,,0.02,,2013-04-13 02:42:00,
2013-04-12 22:52:00,71.0,68.0,29.88,ESE,122,1.0,8.0,91,0.00,,,0.02,,2013-04-13 02:52:00,
2013-04-12 23:03:00,71.0,68.0,29.88,WNW,283,1.0,4.0,90,0.00,,,0.02,,2013-04-13 03:03:00,
2013-04-12 23:12:00,71.0,68.0,29.88,WNW,283,1.0,4.0,90,0.00,,,0.02,,2013-04-13 03:12:00,
2013-04-12 23:23:00,71.0,68.0,29.89,NW,311,2.0,4.0,90,0.00,,,0.02,,2013-04-13 03:23:00,
2013-04-12 23:33:00,71.0,68.0,29.88,NW,314,0.0,3.0,90,0.00,,,0.02,,2013-04-13 03:33:00,
2013-04-12 23:43:00,71.0,68.0,29.88,NW,314,0.0,3.0,90,0.00,,,0.02,,2013-04-13 03:43:00,
2013-04-12 23:53:00,70.0,67.0,29.88,NW,314,0.0,2.0,90,0.00,,,0.02,,2013-04-13 03:53:00,